H-2A R/B (43067 NORAD) Tracking and Keplerian Element Data

This shows tracking and keplerian element data for the satellite.

Feedback or suggestion? Click here.




ElementValue
Catalog43067
NameH-2A R/B
Epoch Orbit447
Epoch Day21.8740047
Epoch Year2018
RAAN98.0448
Inclination98.32
Eccentricity0.0125382
Argument of Perigee15.6937
Mean Anonmoly344.8112
Mean Motion15.05965522
Decay Rate8.63E-06
L11 43067U 17082C 18021.87400470 .00000863 00000-0 54669-4 0 9991
L22 43067 98.3200 98.0448 0125382 15.6937 344.8112 15.05965522 4477



Live tracking and technical data element details for H-2A R/B (NORAD 43067). H-2A R/B can be tracked NOW for your location showing map with azimuth and elevation plus other details from your city location.







IsCatalogInMostPopularTable: catalog: 43067, numindb: 542
Update: records affected: 1



GetName: 43067 H-2A R/B

Hit Count: updated at: Thu, 22 May 2025 03:09:28 GMT